This is the latest recevied weather packets stored in our database for station/object KE8GJZ-1. If no packets are shown the sender has not sent any weather packets the latest 1 day(s).
| Time | Temp. | Humidity | Pressure | Rain* | Wind** | Luminosity | Snow |
|---|---|---|---|---|---|---|---|
| 1778041795 | 8.33° C | 69% | 1007.1 hPa | 0 mm | - | 0 W/m² | - |
| 1778041489 | 8.33° C | 68% | 1006.9 hPa | 0 mm | - | 0 W/m² | - |
| 1778041186 | 8.33° C | 67% | 1007.1 hPa | 0 mm | - | 0 W/m² | - |
| 1778040884 | 8.33° C | 65% | 1007.1 hPa | 0 mm | - | 0 W/m² | - |
| 1778040581 | 8.33° C | 66% | 1007 hPa | 0 mm | - | 0 W/m² | - |
| 1778039974 | 8.33° C | 68% | 1007.1 hPa | 0 mm | - | 0 W/m² | - |
| 1778039672 | 8.33° C | 67% | 1007.1 hPa | 0 mm | - | 0 W/m² | - |
| 1778039066 | 8.33° C | 67% | 1006.9 hPa | 0 mm | - | 0 W/m² | - |
| 1778038763 | 8.33° C | 67% | 1007 hPa | 0 mm | - | 0 W/m² | - |
| 1778038157 | 8.33° C | 64% | 1007 hPa | 0 mm | - | 0 W/m² | - |
| 1778037854 | 8.33° C | 65% | 1006.9 hPa | 0 mm | - | 0 W/m² | - |
| 1778037550 | 8.33° C | 64% | 1007 hPa | 0 mm | - | 0 W/m² | - |
| 1778037248 | 8.33° C | 65% | 1007.1 hPa | 0 mm | - | 0 W/m² | - |
| 1778036340 | 8.89° C | 64% | 1007.2 hPa | 0 mm | - | 0 W/m² | - |
| 1778035734 | 8.89° C | 61% | 1006.8 hPa | 0 mm | - | 0 W/m² | - |
| 1778035431 | 8.89° C | 62% | 1006.8 hPa | 0 mm | - | 0 W/m² | - |
| 1778035126 | 8.89° C | 61% | 1007.2 hPa | 0 mm | - | 0 W/m² | - |
| 1778034218 | 8.89° C | 62% | 1007.1 hPa | 0 mm | - | 0 W/m² | - |
| 1778033916 | 8.89° C | 61% | 1007 hPa | 0 mm | - | 0 W/m² | - |
| 1778033613 | 8.89° C | 62% | 1006.8 hPa | 0 mm | - | 0 W/m² | - |
| 1778033309 | 8.89° C | 63% | 1006.8 hPa | 0 mm | - | 0 W/m² | - |
| 1778032402 | 8.89° C | 59% | 1006.8 hPa | 0 mm | - | 0 W/m² | - |
| 1778032098 | 8.89° C | 60% | 1006.9 hPa | 0 mm | - | 0 W/m² | - |
| 1778031795 | 8.89° C | 59% | 1006.7 hPa | 0 mm | - | 0 W/m² | - |
| 1778031492 | 9.44° C | 59% | 1006.8 hPa | 0 mm | - | 0 W/m² | - |
* Rain latest hour (hover to see other rain measurements)
** Current wind speed in m/s (hover to see current wind gust speed)